• In Belgium
  • List of Countries
  • For 7 days
  • Water Temperature
  • Satellite Maps
  • Weather Map
  • Weather Widgets
  • user-avatar
    Login

    Hourly Weather Mouscron

    Today, 21 October, Sunday

    Time Temperature Precipitation Wind Pressure Humidity
    00:00 +10°C° 0 mm 1 mps 769 mmHg 76%
    01:00 +9°C° 0 mm 1 mps 768 mmHg 76%
    02:00 +9°C° 0 mm 1 mps 768 mmHg 76%
    03:00 +9°C° 0 mm 1 mps 768 mmHg 76%
    04:00 +9°C° 0 mm 1 mps 768 mmHg 76%
    05:00 +9°C° 0 mm 1 mps 768 mmHg 76%
    06:00 +9°C° 0 mm 1 mps 768 mmHg 77%
    07:00 +10°C° 0 mm 1 mps 768 mmHg 72%
    08:00 +12°C° 0 mm 1 mps 767 mmHg 67%
    09:00 +13°C° 0 mm 1 mps 767 mmHg 63%
    10:00 +14°C° 0 mm 1 mps 767 mmHg 59%
    11:00 +16°C° 0 mm 1 mps 767 mmHg 56%
    12:00 +18°C° 0 mm 1 mps 767 mmHg 53%
    13:00 +18°C° 0 mm 1 mps 767 mmHg 54%
    14:00 +19°C° 0 mm 1 mps 766 mmHg 55%
    15:00 +19°C° 0 mm 1 mps 766 mmHg 55%
    16:00 +16°C° 0 mm 1 mps 766 mmHg 61%
    17:00 +15°C° 0 mm 1 mps 766 mmHg 67%
    18:00 +13°C° 0 mm 1 mps 766 mmHg 73%
    19:00 +13°C° 0 mm 1 mps 766 mmHg 76%
    20:00 +13°C° 0 mm 1 mps 766 mmHg 78%
    21:00 +12°C° 0 mm 1 mps 766 mmHg 80%
    22:00 +12°C° 0 mm 1 mps 767 mmHg 82%
    23:00 +12°C° 0 mm 1 mps 767 mmHg 84%

    Tomorrow, 22 October, Monday

    Time Temperature Precipitation Wind Pressure Humidity
    00:00 +12°C° 0 mm 1 mps 767 mmHg 87%
    01:00 +12°C° 0.1 mm 2 mps 767 mmHg 88%
    02:00 +12°C° 0.1 mm 3 mps 767 mmHg 89%
    03:00 +12°C° 0.1 mm 3 mps 767 mmHg 91%
    04:00 +12°C° 0.2 mm 4 mps 768 mmHg 89%
    05:00 +13°C° 0.2 mm 5 mps 768 mmHg 88%
    06:00 +13°C° 0.2 mm 6 mps 769 mmHg 86%
    07:00 +13°C° 0.3 mm 6 mps 769 mmHg 84%
    08:00 +11°C° 0.3 mm 6 mps 770 mmHg 82%
    09:00 +11°C° 0.3 mm 6 mps 770 mmHg 80%
    10:00 +13°C° 0 mm 6 mps 771 mmHg 75%
    11:00 +12°C° 0 mm 7 mps 771 mmHg 70%
    12:00 +14°C° 0 mm 7 mps 772 mmHg 64%
    13:00 +14°C° 0 mm 6 mps 772 mmHg 64%
    14:00 +13°C° 0 mm 6 mps 772 mmHg 63%
    15:00 +13°C° 0 mm 5 mps 772 mmHg 62%
    16:00 +12°C° 0 mm 5 mps 772 mmHg 65%
    17:00 +11°C° 0 mm 4 mps 773 mmHg 68%
    18:00 +10°C° 0 mm 4 mps 773 mmHg 71%
    19:00 +9°C° 0 mm 3 mps 773 mmHg 71%
    20:00 +9°C° 0 mm 3 mps 774 mmHg 72%
    21:00 +8°C° 0 mm 2 mps 774 mmHg 72%
    22:00 +8°C° 0 mm 2 mps 774 mmHg 74%
    23:00 +8°C° 0 mm 2 mps 774 mmHg 75%

    Day after tomorrow, 23 October, Tuesday

    Time Temperature Precipitation Wind Pressure Humidity
    00:00 +8°C° 0 mm 1 mps 773 mmHg 77%
    01:00 +7°C° 0 mm 2 mps 773 mmHg 78%
    02:00 +7°C° 0 mm 2 mps 773 mmHg 78%
    03:00 +7°C° 0 mm 2 mps 772 mmHg 79%
    04:00 +7°C° 0 mm 3 mps 772 mmHg 80%
    05:00 +7°C° 0 mm 3 mps 772 mmHg 81%
    06:00 +6°C° 0 mm 4 mps 771 mmHg 82%
    07:00 +8°C° 0 mm 4 mps 771 mmHg 78%
    08:00 +9°C° 0 mm 5 mps 771 mmHg 74%
    09:00 +10°C° 0 mm 5 mps 771 mmHg 71%
    10:00 +11°C° 0 mm 6 mps 770 mmHg 68%
    11:00 +13°C° 0 mm 6 mps 770 mmHg 66%
    12:00 +14°C° 0 mm 6 mps 769 mmHg 64%
    13:00 +14°C° 0 mm 6 mps 769 mmHg 65%
    14:00 +14°C° 0 mm 6 mps 768 mmHg 65%
    15:00 +14°C° 0 mm 6 mps 768 mmHg 66%
    16:00 +13°C° 0 mm 5 mps 768 mmHg 69%
    17:00 +12°C° 0 mm 5 mps 768 mmHg 73%
    18:00 +11°C° 0 mm 4 mps 768 mmHg 77%
    19:00 +11°C° 0 mm 4 mps 768 mmHg 78%
    20:00 +12°C° 0 mm 4 mps 768 mmHg 79%
    21:00 +12°C° 0 mm 4 mps 768 mmHg 80%
    22:00 +12°C° 0 mm 4 mps 768 mmHg 83%
    23:00 +12°C° 0 mm 4 mps 768 mmHg 87%

    24 October, Wednesday

    Time Temperature Precipitation Wind Pressure Humidity
    00:00 +11°C° 0 mm 4 mps 768 mmHg 91%
    01:00 +11°C° 0 mm 4 mps 768 mmHg 92%
    02:00 +11°C° 0 mm 4 mps 767 mmHg 92%
    03:00 +11°C° 0 mm 4 mps 767 mmHg 93%
    04:00 +12°C° 0 mm 4 mps 767 mmHg 93%
    05:00 +12°C° 0 mm 4 mps 767 mmHg 92%
    06:00 +13°C° 0 mm 4 mps 767 mmHg 92%
    07:00 +13°C° 0 mm 4 mps 767 mmHg 90%
    08:00 +14°C° 0 mm 4 mps 768 mmHg 87%
    09:00 +15°C° 0 mm 4 mps 768 mmHg 85%
    10:00 +15°C° 0 mm 4 mps 768 mmHg 83%
    11:00 +17°C° 0 mm 4 mps 768 mmHg 81%
    12:00 +17°C° 0 mm 4 mps 768 mmHg 80%
    13:00 +17°C° 0 mm 4 mps 768 mmHg 80%
    14:00 +17°C° 0 mm 4 mps 767 mmHg 80%
    15:00 +17°C° 0 mm 3 mps 767 mmHg 80%
    16:00 +16°C° 0 mm 3 mps 767 mmHg 84%
    17:00 +14°C° 0 mm 3 mps 767 mmHg 88%
    18:00 +15°C° 0 mm 2 mps 767 mmHg 92%
    19:00 +14°C° 0 mm 2 mps 767 mmHg 92%
    20:00 +14°C° 0 mm 2 mps 767 mmHg 93%
    21:00 +13°C° 0 mm 2 mps 767 mmHg 94%
    22:00 +14°C° 0 mm 2 mps 767 mmHg 94%
    23:00 +14°C° 0 mm 2 mps 766 mmHg 93%

    25 October, Thursday

    Time Temperature Precipitation Wind Pressure Humidity
    00:00 +14°C° 0 mm 2 mps 766 mmHg 93%
    01:00 +12°C° 0 mm 3 mps 766 mmHg 94%
    02:00 +12°C° 0 mm 3 mps 765 mmHg 94%
    03:00 +12°C° 0 mm 3 mps 765 mmHg 95%
    04:00 +11°C° 0 mm 3 mps 765 mmHg 94%
    05:00 +11°C° 0 mm 3 mps 764 mmHg 94%
    06:00 +10°C° 0 mm 3 mps 764 mmHg 94%
    07:00 +11°C° 0 mm 3 mps 764 mmHg 88%
    08:00 +12°C° 0 mm 3 mps 764 mmHg 83%
    09:00 +12°C° 0 mm 3 mps 764 mmHg 77%
    10:00 +13°C° 0 mm 3 mps 763 mmHg 73%
    11:00 +14°C° 0 mm 3 mps 763 mmHg 68%
    12:00 +14°C° 0 mm 3 mps 763 mmHg 64%
    13:00 +14°C° 0 mm 3 mps 762 mmHg 64%
    14:00 +14°C° 0 mm 3 mps 762 mmHg 64%
    15:00 +15°C° 0 mm 2 mps 761 mmHg 64%
    16:00 +14°C° 0 mm 2 mps 761 mmHg 69%
    17:00 +12°C° 0 mm 2 mps 761 mmHg 75%
    18:00 +10°C° 0 mm 2 mps 760 mmHg 81%
    19:00 +9°C° 0 mm 2 mps 760 mmHg 82%
    20:00 +9°C° 0 mm 2 mps 760 mmHg 84%
    21:00 +10°C° 0 mm 1 mps 759 mmHg 85%
    22:00 +8°C° 0 mm 2 mps 759 mmHg 86%
    23:00 +8°C° 0 mm 2 mps 758 mmHg 86%

    26 October, Friday

    Time Temperature Precipitation Wind Pressure Humidity
    00:00 +8°C° 0 mm 2 mps 757 mmHg 87%
    01:00 +8°C° 0 mm 2 mps 757 mmHg 87%
    02:00 +7°C° 0 mm 2 mps 756 mmHg 88%
    03:00 +7°C° 0 mm 3 mps 756 mmHg 88%
    04:00 +8°C° 0 mm 2 mps 755 mmHg 87%
    05:00 +8°C° 0 mm 2 mps 755 mmHg 86%
    06:00 +8°C° 0 mm 2 mps 754 mmHg 85%
    07:00 +9°C° 0 mm 2 mps 754 mmHg 84%
    08:00 +10°C° 0 mm 2 mps 754 mmHg 82%
    09:00 +12°C° 0 mm 2 mps 753 mmHg 80%
    10:00 +12°C° 0.2 mm 2 mps 753 mmHg 80%
    11:00 +12°C° 0.2 mm 2 mps 752 mmHg 79%
    12:00 +12°C° 0.2 mm 3 mps 752 mmHg 78%
    13:00 +11°C° 0.4 mm 3 mps 751 mmHg 80%
    14:00 +10°C° 0.4 mm 3 mps 751 mmHg 83%
    15:00 +10°C° 0.4 mm 3 mps 751 mmHg 85%
    16:00 +9°C° 0.3 mm 3 mps 751 mmHg 87%
    17:00 +9°C° 0.3 mm 3 mps 751 mmHg 88%
    18:00 +9°C° 0.3 mm 3 mps 751 mmHg 90%
    19:00 +9°C° 0.5 mm 3 mps 751 mmHg 90%
    20:00 +9°C° 0.5 mm 3 mps 751 mmHg 89%
    21:00 +8°C° 0.5 mm 4 mps 751 mmHg 89%
    22:00 +8°C° 0.7 mm 4 mps 750 mmHg 88%
    23:00 +7°C° 0.7 mm 4 mps 750 mmHg 86%
    Show more